Weather History for Chillicothe, MO

Change the Weather History Date:

Sunday, December 9, 2012

  Actual Average (KIRK) Record (KIRK)
Temperature  
Mean Temperature 32 °F 30 °F  
Max Temperature 43 °F 39 °F 64 °F (1940)
Min Temperature 21 °F 22 °F -4 °F (1977)
Degree Days  
Heating Degree Days 33 35  
Month to date heating degree days 300  
Since 1 July heating degree days 1521  
Cooling Degree Days 0 0  
Month to date cooling degree days 0  
Year to date cooling degree days 939  
Moisture  
Dew Point 29 °F    
Average Humidity 78    
Maximum Humidity 93    
Minimum Humidity 60    
Precipitation  
Precipitation 0.01 in 0.06 in 1.66 in (2003)
Month to date precipitation 0.59  
Year to date precipitation 38.15  
Sea Level Pressure  
Sea Level Pressure 29.95 in    
Wind  
Wind Speed 7 mph (NW)    
Max Wind Speed 16 mph    
Max Gust Speed 25 mph    
T = Trace of Precipitation, MM = Missing Value Source: NWS Daily Summary

Daily Weather History Graph

Daily Weather History Graph

Search for Another Location

Airport:

Trip Planner

Search our weather history database for the weather conditions in past years. The results will help you decide how hot, cold, wet, or windy it might be!

Date:

Astronomy

Dec. 09, 2012 Rise Set
Actual Time 7:24 AM CST 4:49 PM CST
Civil Twilight 6:54 AM CST 5:19 PM CST
Nautical Twilight 6:20 AM CST 5:53 PM CST
Astronomical Twilight 5:47 AM CST 6:26 PM CST
Moon 2:58 AM CST (12/9) 1:56 PM CST (12/9)
Length of Visible Light 10h 25m
Length of Day
9h 25m
Waning Crescent, 18% of the Moon is Illuminated
Dec 9
Waning Crescent
Dec 13
New
Dec 19
First Quarter
Dec 28
Full
Jan 4
Last Quarter

Hourly Weather History & Observations

Time (CST) Temp. Windchill Dew Point Humidity Pressure Visibility Wind Dir Wind Speed Gust Speed Precip Events Conditions
12:52 AM 39.0 °F 34.8 °F 36.0 °F 89% 29.92 in - East 5.8 mph - N/A   Unknown
1:52 AM 39.0 °F 34.0 °F 37.0 °F 93% 29.91 in - ESE 6.9 mph - N/A   Unknown
2:52 AM 39.9 °F 37.8 °F 37.0 °F 89% 29.90 in - East 3.5 mph - N/A   Unknown
3:52 AM 39.9 °F - 37.0 °F 89% 29.89 in - Calm Calm - N/A   Unknown
4:52 AM 39.9 °F 37.8 °F 37.9 °F 93% 29.88 in - NNE 3.5 mph - 0.01 in   Unknown
5:52 AM 39.9 °F - 37.9 °F 93% 29.88 in - Calm Calm - N/A   Unknown
6:52 AM 39.9 °F - 37.9 °F 93% 29.89 in - Calm Calm - N/A   Unknown
7:52 AM 39.9 °F 37.8 °F 37.9 °F 93% 29.91 in - West 3.5 mph - N/A   Unknown
8:52 AM 39.9 °F 35.1 °F 37.9 °F 93% 29.90 in - NW 6.9 mph - N/A   Unknown
9:52 AM 41.0 °F 37.1 °F 39.0 °F 93% 29.91 in - NW 5.8 mph - N/A   Unknown
10:52 AM 43.0 °F 39.5 °F 37.9 °F 82% 29.91 in - Variable 5.8 mph - N/A   Unknown
11:52 AM 42.1 °F 36.6 °F 37.0 °F 82% 29.90 in - WNW 9.2 mph - N/A   Unknown
12:52 PM 43.0 °F 38.2 °F 37.0 °F 80% 29.89 in - WNW 8.1 mph - N/A   Unknown
1:52 PM 41.0 °F 35.8 °F 35.1 °F 79% 29.92 in - WNW 8.1 mph 20.7 mph N/A   Unknown
2:52 PM 41.0 °F 33.5 °F 30.0 °F 65% 29.92 in - WNW 13.8 mph - N/A   Unknown
3:52 PM 37.0 °F 27.7 °F 27.0 °F 67% 29.94 in - WNW 16.1 mph 23.0 mph N/A   Unknown
4:52 PM 32.0 °F 21.2 °F 21.9 °F 66% 29.98 in - WNW 16.1 mph 25.3 mph N/A   Unknown
5:52 PM 28.9 °F 19.8 °F 18.0 °F 64% 30.01 in - WNW 10.4 mph 23.0 mph N/A   Unknown
6:52 PM 28.0 °F 20.0 °F 17.1 °F 63% 30.03 in - WNW 8.1 mph 21.9 mph N/A   Unknown
7:52 PM 27.0 °F 17.3 °F 16.0 °F 63% 30.05 in - WNW 10.4 mph 20.7 mph N/A   Unknown
8:52 PM 25.0 °F 13.1 °F 12.9 °F 60% 30.06 in - NW 13.8 mph 23.0 mph N/A   Unknown
9:52 PM 23.0 °F 10.6 °F 12.0 °F 63% 30.06 in - WNW 13.8 mph 23.0 mph N/A   Unknown
10:52 PM 21.9 °F 8.7 °F 12.0 °F 66% 30.07 in - NW 15.0 mph 23.0 mph N/A   Unknown
11:52 PM 21.9 °F 11.7 °F 12.0 °F 66% 30.09 in - WNW 9.2 mph 16.1 mph N/A   Unknown